Location: Clinton NY
(43.0598°N, 75.3602°W)
Time: 20:01:01
(UTC-04:00)

ISS - All Passes

Search period start: 28 May 2016 00:00
Search period end: 07 June 2016 00:00
Orbit: 402 x 404 km, 51.6° (Epoch: 28 May)

Date Brightness Start Highest point End Pass type
(mag) Time Alt. Az. Time Alt. Az. Time Alt. Az.
28 May - 01:28:47 10° NW 01:31:10 18° N 01:33:33 10° NE visible
28 May - 03:05:09 10° NW 03:08:15 39° NNE 03:11:20 10° E visible
28 May - 04:41:43 10° WNW 04:44:38 30° SW 04:47:32 10° SSE visible
28 May - 21:21:20 10° SW 21:24:27 45° SE 21:27:36 10° ENE visible
28 May - 22:58:01 10° W 23:00:59 31° NNW 23:03:57 10° NE visible
29 May - 00:35:49 10° NW 00:38:09 18° N 00:40:29 10° NE visible
29 May - 02:12:29 10° NW 02:15:21 27° NNE 02:18:12 10° E visible
29 May - 03:48:45 10° WNW 03:51:59 58° SW 03:55:11 10° SE visible
29 May - 20:29:08 10° SSW 20:31:50 24° SE 20:34:32 10° E daylight
29 May - 22:04:57 10° WSW 22:08:07 46° NNW 22:11:18 10° NE visible
29 May - 23:42:42 10° NW 23:45:08 19° N 23:47:34 10° NE visible
30 May - 01:19:46 10° NW 01:22:23 22° NNE 01:25:01 10° ENE visible
30 May - 02:55:58 10° NW 02:59:15 76° NNE 03:02:29 10° ESE visible
30 May - 04:33:32 10° W 04:35:18 14° SW 04:37:03 10° SSW visible
30 May - 19:37:40 10° SSE 19:39:17 13° SE 19:40:53 10° ESE daylight
30 May - 21:12:03 10° WSW 21:15:18 80° NNW 21:18:35 10° NE visible
30 May - 22:49:29 10° WNW 22:52:08 22° NNW 22:54:47 10° NE visible
31 May - 00:26:59 10° NW 00:29:24 19° N 00:31:49 10° NE visible
31 May - 02:03:16 10° NW 02:06:26 44° NNE 02:09:35 10° E visible
31 May - 03:39:58 10° WNW 03:42:45 25° SW 03:45:29 10° SSE visible
31 May - 20:19:23 10° SW 20:22:35 55° SE 20:25:47 10° ENE daylight
31 May - 21:56:17 10° W 21:59:11 28° NNW 22:02:05 10° NE visible
31 May - 23:34:03 10° NW 23:36:23 18° N 23:38:42 10° NE visible
01 Jun - 01:10:36 10° NW 01:13:33 30° NNE 01:16:29 10° E visible
01 Jun - 02:46:57 10° WNW 02:50:06 48° SW 02:53:15 10° SE visible
01 Jun - 19:27:03 10° SSW 19:29:55 29° SE 19:32:48 10° ENE daylight
01 Jun - 21:03:10 10° W 21:06:17 40° NNW 21:09:24 10° NE visible
01 Jun - 22:40:57 10° NW 22:43:21 18° N 22:45:44 10° NE visible
02 Jun - 00:17:54 10° NW 00:20:36 23° NNE 00:23:18 10° ENE visible
02 Jun - 01:54:07 10° WNW 01:57:23 89° N 02:00:39 10° SE visible
02 Jun - 03:32:13 10° WSW 03:33:21 11° SW 03:34:29 10° SSW night (unlit)
02 Jun - 18:35:17 10° S 18:37:20 16° SE 18:39:25 10° E daylight
02 Jun - 20:10:12 10° WSW 20:13:26 67° NNW 20:16:43 10° NE daylight
02 Jun - 21:47:46 10° WNW 21:50:20 21° NNW 21:52:55 10° NE visible
02 Jun - 23:25:08 10° NW 23:27:36 19° N 23:30:04 10° ENE visible
03 Jun - 01:01:23 10° NW 01:04:35 51° NNE 01:07:47 10° ESE visible
03 Jun - 02:38:16 10° W 02:40:49 21° SW 02:43:22 10° S night (unlit)
03 Jun - 19:17:27 10° SW 19:20:41 67° SE 19:23:56 10° ENE daylight
03 Jun - 20:54:32 10° WNW 20:57:21 26° NNW 21:00:11 10° NE daylight
03 Jun - 22:32:14 10° NW 22:34:35 18° N 22:36:55 10° NE visible
04 Jun - 00:08:42 10° NW 00:11:43 33° NNE 00:14:43 10° E visible
04 Jun - 01:45:07 10° WNW 01:48:12 39° SW 01:51:16 10° SSE visible
04 Jun - 18:25:00 10° SSW 18:27:59 34° SE 18:31:01 10° ENE daylight
04 Jun - 20:01:23 10° W 20:04:26 36° NNW 20:07:30 10° NE daylight
04 Jun - 21:39:11 10° NW 21:41:32 18° N 21:43:54 10° NE visible
04 Jun - 23:16:00 10° NW 23:18:46 25° NNE 23:21:32 10° ENE visible
05 Jun - 00:52:14 10° WNW 00:55:30 76° SW 00:58:45 10° SE visible
05 Jun - 17:33:00 10° S 17:35:23 19° SE 17:37:46 10° E daylight
05 Jun - 19:08:20 10° WSW 19:11:34 57° NNW 19:14:47 10° NE daylight
05 Jun - 20:45:59 10° WNW 20:48:30 20° N 20:51:02 10° NE daylight
05 Jun - 22:23:15 10° NW 22:25:47 20° N 22:28:18 10° ENE visible
05 Jun - 23:59:28 10° NW 00:02:43 60° NNE 00:05:56 10° ESE visible
06 Jun - 01:36:34 10° W 01:38:51 18° SW 01:41:08 10° S visible
06 Jun - 18:15:30 10° SW 18:18:46 81° SE 18:22:03 10° ENE daylight
06 Jun - 19:52:46 10° WNW 19:55:30 24° NNW 19:58:15 10° NE daylight
06 Jun - 21:30:22 10° NW 21:32:45 18° N 21:35:07 10° NE visible
06 Jun - 23:06:46 10° NW 23:09:50 37° NNE 23:12:55 10° E visible
